www.pogodaiklimat.ru
ПОГОДА в Ньюпорте
Время
и дата
09:35 20.05
09:55 20.05
10:15 20.05
10:35 20.05
10:55 20.05
11:15 20.05
11:35 20.05
11:55 20.05
12:15 20.05
12:35 20.05
12:55 20.05
13:15 20.05
13:35 20.05
13:55 20.05
14:15 20.05
14:35 20.05
14:55 20.05
15:15 20.05
15:35 20.05
15:55 20.05
16:15 20.05
16:35 20.05
16:55 20.05
17:15 20.05
17:35 20.05
17:55 20.05
18:15 20.05
18:35 20.05
18:55 20.05
19:15 20.05
19:35 20.05
19:55 20.05
20:15 20.05
20:35 20.05
20:55 20.05
21:15 20.05
21:35 20.05
21:55 20.05
22:15 20.05
22:35 20.05
22:55 20.05
23:15 20.05
23:35 20.05
23:55 20.05
00:15 21.05
00:35 21.05
00:55 21.05
01:15 21.05
Ветер
(напр.,м/с)
Видим. Явления Облачность Т
(С)
Тd
(С)
f
(%)
Тe
(С)
Тes
(С)
Комфортность P
(гПа)
Po
(гПа)
Тmin
(С)
Tmax
(С)
R
(мм)
R24
(мм)
S
(см)
Ю 4 16 км ясно +20.5 +15.1 71 +23 +32 комфорт 988.7
ЮВ 3 16 км ясно +21.3 +15.2 68 +24 +34 комфорт 988.7
ЮВ 3 16 км ясно +22.0 +15.4 66 +26 +39 душно 988.7
Ю 2 16 км ясно +22.5 +15.7 65 +26 +42 жарко 988.7
ЮВ 2 16 км ясно +23.1 +16.2 65 +28 +43 душно 988.4
штиль 0 16 км ясно +23.5 +15.6 61 +27 +51 опасность
солнечного
удара
988.4
В 2 16 км ясно +24.1 +16.2 61 +27 +45 жарко 988.0
ЮВ 2 16 км ясно +24.5 +16.7 62 +28 +46 душно 987.7
Ю 2 16 км ясно +25.3 +16.5 58 +29 +47 душно 987.7
ЮВ 2 16 км ясно +25.7 +16.3 56 +29 +48 душно 987.4
Ю 2 16 км ясно +26.7 +16.4 53 +30 +49 душно 987.0 +16.4 +26.7
Ю 3 16 км ясно +26.7 +15.6 51 +30 +44 душно 987.0
штиль 0 16 км 5/5 1650 м +26.3 +14.9 49 +29 +40 жарко 986.7
Ю 2 16 км 5/5 1650 м +26.6 +15.8 52 +30 +38 душно 986.7
Ю 4 16 км 5/5 1650 м +27.1 +16.4 52 +31 +35 душно 986.1
ЮЗ 2 16 км 5/5 1950 м +27.6 +14.5 45 +30 +37 жарко 985.7
Ю 3 16 км 5/5 1950 м +27.9 +16.1 49 +31 +37 душно 985.7
Ю 2 16 км 8/8 1950 м +27.6 +16.1 50 +31 +33 душно 985.7
ЮЗ 3 16 км 5/5 1950 м +28.0 +15.4 46 +31 +35 душно 985.4
штиль 0 16 км 8/5 1950 m
[Ac]
+26.6 +14.6 48 +29 +33 жарко 985.4
штиль 0 16 км 8/8 1950 м +28.4 +13.9 41 +30 +32 жарко 985.4
З 2 16 км 5/5 1950 м +26.8 +13.5 44 +29 +32 жарко 985.4
ЮЗ 3 16 км 8/8 1950 м +27.4 +15.3 48 +30 +31 жарко 985.4
ЮЗ 3 16 км 5/5 1950 м +26.7 +15.1 49 +29 +31 жарко 985.1
З 2 16 км ясно +26.2 +14.8 49 +29 +32 жарко 985.1
З 2 16 км ясно +25.7 +14.1 49 +28 +31 жарко 985.1
штиль 0 16 км ясно +25.8 +14.5 50 +28 +30 жарко 985.1
штиль 0 16 км ясно +25.5 +14.2 50 +28 +29 жарко 985.4
штиль 0 16 км ясно +24.9 +14.1 51 +27 +29 жарко 985.4 +24.8 +28.5
штиль 0 16 км ясно +24.0 +13.9 53 +26 +26 жарко 985.4
штиль 0 16 км ясно +23.6 +14.2 56 +26 +26 жарко 985.4
штиль 0 16 км ясно +21.6 +14.9 66 +25 +25 комфорт 985.4
штиль 0 16 км 5/0 2100 m
[Ac]
+18.5 +15.2 81 +19 +19 985.7
штиль 0 16 км 8/0 2100 m
[Ac]
+19.1 +15.1 78 +20 +20 986.1
штиль 0 16 км 5/0 2100 m
[Ac]
+20.0 +15.0 73 +22 +22 комфорт 986.1
Ю 2 16 км 5/0 2100 m
[Ac]
+20.2 +15.0 72 +23 +23 комфорт 986.1
ЮЗ 3 16 км ясно +18.2 +15.3 83 +19 +19 986.1
Ю 2 16 км ясно +18.0 +15.2 84 +19 +19 985.7
Ю 2 16 км ясно +19.3 +15.0 76 +21 +21 комфорт 985.7
Ю 2 16 км 5/5 1800 м +17.6 +14.9 84 +18 +18 985.7
штиль 0 16 км 5/5 1800 м +18.0 +14.7 81 +18 +18 985.4
Ю 3 16 км 5/5 1800 м +19.1 +14.6 75 +21 +21 комфорт 985.4
Ю 3 16 км ясно +17.4 +14.5 83 +17 +17 985.4
Ю 3 16 км ясно +18.5 +14.5 78 +19 +19 985.4
Ю 2 16 км ясно +16.8 +14.5 86 +17 +17 985.4
Ю 3 16 км ясно +16.9 +14.2 84 +17 +17 985.4
штиль 0 16 км ясно +16.5 +14.0 85 +16 +16 985.1 +16.5 +24.6
ЮЗ 2 16 км ясно +15.6 +14.0 90 +15 +15 985.1
Местоположение метеостанции Newport State Airport: широта 44.9300 долгота -72.2000 высота над уровнем моря 233 м.
В архиве по умолчанию представлена погода в Ньюпорте за последние 1-2 суток. Обновление информации о фактической погоде в базе происходит ежечасно! Архивные данные за месяц целиком и за предыдущие месяцы Вы можете получить, выбрав интересующий диапазон дат из раскрывающегося списка и нажав кнопку "Ввод!".
Внимание! Архив погоды МЕТАР в базе сайта по станциям, не включенным в климатический монитор, хранится не более 60 дней. Нет смысла пытаться выбрать более раннюю дату.
*Определитесь, кто Вы:
Внимание! Время в таблицах - местное (без учета летнего времени). Для получения всемирного времени необходимо вычесть поправку, которая равна -5 ч.
Смотрите также архив погоды в соседних городах и на ближайших метеорологических станциях:
Партнеры нашего сайта:      
Пояснения к столбцам:
  • Ветер - указаны скорость ветра в м/с - средняя за 10 мин, порывы в срок и между сроками (в фигурных скобках) и направление, откуда дует ветер: С - северный,
  • СВ - северо-восточный, В - восточный, ЮВ - юго-восточный, Ю - южный, ЮЗ - юго-западный, З - западный, СЗ - северо-западный.
  • Видимость - горизонтальная дальность видимости в метрах или километрах. При видимости от 1 до 10 км при отсутствии осадков обычно наблюдается дымка, при ухудшении видимости до 1 км и менее - туман. В сухую погоду видимость может ухудшаться дымом, пылью или мглою.
  • Явления - указаны атмосферные явления, наблюдавшиеся в срок или в последний час перед сроком; фигурными скобками обозначены явления, наблюдавшиеся между сроками (за 1-3 часа до срока); квадратными скобками обозначены град или гололедные отложения с указанием их диаметра в мм.
  • Облачность - указаны через наклонную черту общая и нижняя облачность в баллах и высота нижней границы облаков в метрах; квадратными скобками обозначены формы облаков: Ci - перистые, Cs - перисто-слоистые, Cc - перисто-кучевые, Ac - высококучевые, As - высокослоистые, Sc - слоисто-кучевые, Ns - слоисто-дождевые, Cu - кучевые, Cb - кучево-дождевые. Подробнее классификацию облаков см. в Атласе облаков (PDF).
  • T - Температура воздуха - температура, измеренная на высоте 2 м над землей.
  • Td - Температура точки росы - температура, при понижении до которой содержащийся в воздухе водяной пар достигнет насыщения.
  • f - Относительная влажность воздуха - влажноcть воздуха, измеренная на высоте 2 м над землей.
  • Te - Эффективная температура - температура, которую ощущает одетый по сезону человек в тени. Характеристика душности погоды. При расчете учитывается влияние влажности воздуха и скорости ветра на теплоощущения человека.
  • Tes - Эффективная температура на солнце - температура, которую ощущает человек, с поправкой на солнечный нагрев. Характеристика знойности погоды. Зависит от высоты солнца над горизонтом, облачности и скорости ветра. Ночью, в пасмурную погоду, а также при ветре 12 м/с и более поправка равна нулю.
  • P - Атмосферное давление - приведенное к уровню моря атмосферное давление.
  • Po - Атмосферное давление - измеренное на уровне метеостанции атмосферное давление.
  • Tmin - Минимальная температура - минимум температуры воздуха на высоте 2 м над землей.
  • Tmax - Максимальная температура - максимум температуры воздуха на высоте 2 м над землей.
  • R - Количество осадков - Количество выпавших осадков за период времени, мм. При наведении курсора мыши на число - период времени, за который выпало указанное количество осадков.
  • R24 - Количество осадков - Количество выпавших осадков за 24 часа, мм.
  • S - Снежный покров - Высота снежного покрова, см. При наведении курсора мыши на число - состояние снежного покрова и степень покрытия местности в баллах.